Estación Meteorológica Peña el Pijo (Robertgarden) [ 07/12/20 03:45:51 CEST ]

Fecha Hora Presion(HPa) Temp (°C) Humedad % Rocio (°C) Viento ( m/s) Direccion Lluvia 1Hora(mm) Lluvia 24H(mm) LLuvia Total(mm)
2020-Feb-15 01:08:38 1014.600 - - - - N     39.88
2020-Feb-15 02:09:52 1014.300 - - - - N     39.88
2020-Feb-15 03:13:47 1014.100 - - - - N     39.88
2020-Feb-15 04:09:41 1013.800 - - - - N     39.88
2020-Feb-15 05:09:29 1013.800 - - - - N     39.88
2020-Feb-15 06:09:28 1013.900 - - - - N     39.88
2020-Feb-15 07:08:49 1013.800 - - - - N     39.88
2020-Feb-15 08:08:56 1014.300 - - - - N     39.88
2020-Feb-15 09:09:27 1015.300 - - - - N     39.88
2020-Feb-15 10:09:10 1015.200 - - - - N     39.88
2020-Feb-15 11:09:15 1015.300 - - - - N     39.88
2020-Feb-15 12:09:28 1015.100 - - - - N     39.88
2020-Feb-15 13:08:53 1014.900 - - - - N     39.88
2020-Feb-15 14:09:27 1014.300 - - - - N     39.88
2020-Feb-15 15:09:43 1014.000 - - - - N     39.88
2020-Feb-15 16:08:46 1014.600 - - - - N     39.88
2020-Feb-15 17:09:19 1014.600 - - - - N     39.88
2020-Feb-15 18:08:51 1014.300 - - - - N     39.88
2020-Feb-15 19:09:13 1014.900 - - - - N     39.88
2020-Feb-15 20:09:21 1016.300 - - - - N     39.88
2020-Feb-15 21:08:58 1016.900 - - - - N     39.88
2020-Feb-15 22:09:02 1017.100 - - - - N     39.88
2020-Feb-15 23:08:48 1017.100 - - - - N     39.88

Temperatura Máxima:    Temperatura Mínima:
Presión Máxima:1017.100 Hpa    Presión Mínima:1013.800 Hpa


Volver